User: anonymous   Login
Location: Unspecified
(0.0000°N, 0.0000°E)
Time: 11:03:22
(UTC+00:00)
Language:

DELFI C3 - Orbit

View from above orbital plane
View from above orbital plane
View from above satellite
View from above satellite

Ground track
Ground track

The orbit data is extracted from the following two-line orbital elements,

1 32789U 08021G   17268.75108871 +.00001782 +00000-0 +12882-3 0  9993
2 32789 097.5500 324.8288 0014380 117.1630 243.1065 15.05224232511898
Epoch (UTC): 25 September 2017 18:01:34
Eccentricity: 0.0014380
inclination: 97.5500°
perigee height: 541 km
apogee height: 561 km
right ascension of ascending node: 324.8288°
argument of perigee: 117.1630°
revolutions per day: 15.05224232
mean anomaly at epoch: 243.1065°
orbit number at epoch: 51189

The dashed part of the orbit path shows where the satellite is in the earth's shadow,  

DLR